STARLINK-33671, 63320

Orbit data source: Space-Track

STARLINK-33671, 63320 is a payload satellite owned by SpaceX/Seattle (US) in LEO that was launched on Tue, 18 Mar 2025 UTC via an FALCON 9 launch vehicle from the Air Force Eastern Test Range (AFETR). Payload-class satellites include a variety of spacecraft equipped with specific instruments for various scientific and technological missions. These include communications satellites like Starlink; space stations such as the ISS; scientific satellites like the Hubble; Earth observation satellites from companies like Planet Labs, Umbra, and HawkEye 360; GPS; miniature CubeSats for education and research; and military/defense satellites.

Loading next visibility...
Identifier
63320, 2025-057P
Orbit
LEO
Country
Flag of USUS
Related business
Manufacturer
SpaceX/Seattle
Mission
Operational Commercial Communications
Bus & Motor
STARLINK V2MO, Unknown motor
Mass
575 kg wet, ~530 kg dry
Launch date (UTC)
2025-03-18 (1 year ago)
Launch vehicle
FALCON 9
Launch site
Air Force Eastern Test Range (AFETR)
Object type
Payload
Rocket body
Debris
Shape & HBR
Box + 2 Pan, 17.7 m
Radar Cross Section
36.964 m², Large (>1 m²)

Expand to show TLE details & history
Last TLE update: 14 hours ago

TLE from 14 hours ago
0 STARLINK-33671
1 63320U 25057P   26126.51265985  .00014219  00000-0  52568-3 0  9997
2 63320  43.0008  53.6658 0001496 272.6113  87.4568 15.27551523 64741
Epoch: 2026-05-06T12:18Z
TLE epoch observation values (Epoch: 2026-05-06T12:18:13.811Z)
Latitude
0.00004°
Longitude
4.73622°
Altitude
482.864 km
Speed
7.626 km/s
True Right ascension
03h 34m 39s
True Declination
0° 00' 00"
Sunlit
Object was in daylight at epoch
Visualization orbit readout
Latitude
Unknown
Longitude
Unknown
Altitude
Unknown
Speed
Unknown
Apparent Right ascension
Unknown
Apparent Declination
Unknown
Sunlit
N/A
Visualization observer readout
Local Sidereal Time
10:35:26
Azimuth
Unknown
Elevation
Unknown
Doppler factor
Unknown
Orbital elements
Apogee altitude
486.106 km
Perigee altitude
484.053 km
Semi-major axis
6,863.216 km
Eccentricity
0.00015
Inclination
43.0008°
RAAN
53.6658°
Arg. of periapsis
272.6113°
True anomaly
87.47393°
Mean anomaly
87.4568°
Eccentric anomaly
87.46536°
Mean motion
3.81726 °/min
Orbital period
94.31 mins
BSTAR
0.00052568
Loading maneuver chart data...
Computing Atmospheric mass density...
Loading historical data...
Loading historical data...
Loading historical data...
Loading historical data...
Loading historical data...
Loading historical data...
Loading historical data...

Documentation

Showing up to 5 results
|